[[{"header":{"parameterUnit":"m.s-1","parameterCategory":1,"la1":30.2991,"la2":30.254,"lo1":-89.0895,"lo2":-89.0444,"dx":0.0017,"dy":0.0017,"nx":28,"ny":28,"refTime":"2022-12-13T15:00:00:Z","depth":0,"parameterNumber":2,"parameterNumberName":"U-component_of_WINDS"},"data":[0,0,0,0,0,0,0,0,0,0,0,0,0,0,0,0,0,0,0,0,0,0,0,0,0,0,0,0,0,0,0,0,0,0,0,0,0,0,0,0,0,0,0,0,0,0,0,0,0,0,0,0,0,0,0,0,0,0,-2.4438,-2.4438,0,-2.441,-2.4409,-2.4409,-2.4341,-2.4339,-2.4338,-2.4336,-2.4309,-2.4309,-2.431,0,0,0,0,0,0,0,0,0,0,0,0,0,-2.4437,-2.4437,-2.4439,-2.4438,-2.4438,-2.441,-2.4409,-2.4409,-2.4341,-2.4339,-2.4337,-2.4336,-2.4308,-2.4309,-2.431,0,0,0,0,0,0,0,0,0,0,0,0,0,-2.4426,-2.4437,-2.4439,-2.44,-2.4397,-2.441,-2.4409,-2.4409,-2.4341,-2.4339,-2.4337,-2.4335,-2.4308,-2.4309,-2.431,-2.4358,0,0,-2.4313,-2.4313,0,0,0,0,0,0,0,0,-2.4427,-2.4426,-2.4406,-2.4403,-2.4399,-2.4376,-2.4398,-2.4392,-2.4342,-2.4362,-2.4336,-2.4334,-2.4333,-2.4332,-2.4331,-2.4357,-2.4356,-2.4313,-2.4313,-2.4314,-2.4314,0,0,0,0,0,0,0,-2.4427,-2.4427,-2.4427,-2.4406,-2.4402,-2.4385,-2.4381,-2.4397,-2.436,-2.436,-2.4355,-2.4353,-2.4331,-2.433,-2.433,-2.4355,-2.4313,-2.4313,-2.4314,-2.4314,-2.4421,-2.4423,0,0,0,0,0,0,-2.4433,-2.4428,-2.4428,-2.4426,-2.4408,-2.4387,-2.4383,-2.4386,-2.436,-2.4354,-2.4355,-2.435,-2.433,-2.4329,-2.4329,-2.4384,-2.4314,-2.4314,-2.4315,-2.4418,-2.4421,-2.4424,0,0,0,0,0,0,-2.4434,-2.4434,-2.4429,-2.4426,-2.4424,-2.4389,-2.4394,-2.4386,-2.4386,-2.4355,-2.4349,-2.4361,-2.4328,-2.4327,-2.4352,-2.4383,-2.4315,-2.4316,-2.4416,-2.4419,-2.4422,-2.4496,0,0,0,0,0,0,-2.4434,-2.4435,-2.4452,-2.4427,-2.4424,-2.4452,-2.4395,-2.4387,-2.4388,-2.4381,-2.436,-2.4354,-2.4326,-2.4351,-2.4353,-2.4383,-2.4316,-2.4413,-2.4417,-2.4421,-2.4491,-2.4502,-2.4511,0,0,0,0,0,-2.4434,-2.4474,-2.4453,-2.4454,-2.4445,-2.4454,-2.4453,-2.442,-2.439,-2.4408,-2.4389,-2.4355,-2.4379,-2.4354,-2.4355,-2.4386,-2.4411,-2.4416,-2.4421,-2.4486,-2.4499,-2.4511,0,0,0,0,0,0,-2.4504,-2.447,-2.4447,-2.4479,-2.447,-2.4442,-2.4464,-2.4435,-2.4434,-2.4428,-2.4387,-2.4383,-2.4413,-2.4402,-2.4374,-2.4432,-2.4389,-2.4395,-2.4438,-2.4451,-2.4461,-2.4463,-2.4317,0,0,0,0,0,-2.4524,-2.4533,-2.4503,-2.4535,-2.4531,-2.4499,-2.4501,-2.4476,-2.4465,-2.4461,-2.4443,-2.4434,-2.444,-2.4444,-2.4448,-2.4488,-2.4484,-2.451,-2.4521,-2.4529,-2.4535,-2.4557,-2.4569,-2.4441,-2.4441,-2.444,0,0,-2.4564,-2.4546,-2.4554,-2.4548,-2.4538,-2.455,-2.4496,-2.451,-2.4518,-2.4463,-2.4485,-2.4472,-2.4459,-2.4492,-2.4506,-2.4484,-2.4569,-2.4536,-2.4543,-2.4544,-2.4563,-2.4575,-2.4586,-2.4444,-2.4443,-2.4443,0,0,-2.4643,-2.463,-2.4656,-2.4647,-2.4632,-2.461,-2.4616,-2.4593,-2.4582,-2.4603,-2.4563,-2.4572,-2.4583,-2.4576,-2.4574,-2.4651,-2.462,-2.4653,-2.4706,-2.4728,-2.4738,-2.4747,-2.4775,-2.4786,-2.4659,-2.4659,-2.4659,0,-2.4695,-2.471,-2.4673,-2.4689,-2.4688,-2.4639,-2.4665,-2.4659,-2.4646,-2.4647,-2.4622,-2.4635,-2.4623,-2.4654,-2.4673,-2.4672,-2.4679,-2.4656,-2.4739,-2.4748,-2.4755,-2.4782,-2.4793,-2.4663,-2.4663,-2.4662,-2.4662,0,-2.4775,-2.4786,-2.4808,-2.4797,-2.4799,-2.482,-2.4787,-2.4793,-2.4769,-2.475,-2.4773,-2.4757,-2.4756,-2.4762,-2.4738,-2.479,-2.4777,-2.4746,-2.4703,-2.4772,-2.4797,-2.4807,-2.4669,-2.4668,-2.4666,-2.4665,0,0,-2.4897,-2.4866,-2.4875,-2.487,-2.485,-2.4858,-2.4878,-2.4877,-2.4884,-2.4877,-2.4894,-2.4904,-2.4875,-2.4873,-2.4848,-2.4867,-2.4931,-2.4834,-2.4833,-2.4854,-2.4989,-2.5013,-2.5025,-2.491,-2.4912,-2.4913,-2.499,0,-2.4973,-2.5004,-2.4972,-2.501,-2.5021,-2.4974,-2.4991,-2.4982,-2.4965,-2.4972,-2.4953,-2.4962,-2.4923,-2.4922,-2.4938,-2.492,-2.4958,-2.4913,-2.4926,-2.4927,-2.4932,-2.5038,-2.5063,-2.5136,-2.4999,-2.5001,-2.5002,0,-2.5064,-2.5062,-2.5101,-2.508,-2.5083,-2.5099,-2.5096,-2.5103,-2.5092,-2.5078,-2.5076,-2.5046,-2.5065,-2.5022,-2.5048,-2.5019,-2.5022,-2.5014,-2.5016,-2.5016,-2.4969,-2.5042,-2.5158,-2.517,-2.5017,-2.5016,-2.5014,0,-2.5151,-2.5158,-2.5182,-2.5179,-2.5155,-2.5167,-2.5158,-2.5144,-2.5146,-2.5144,-2.5145,-2.5145,-2.5146,-2.5147,-2.5118,-2.5089,-2.5149,-2.5103,-2.5139,-2.514,-2.5154,-2.5154,-2.5273,-2.5155,-2.5154,-2.5154,-2.5154,0,-2.5239,-2.5266,-2.5221,-2.5237,-2.5265,-2.5228,-2.5257,-2.5243,-2.5231,-2.5244,-2.5204,-2.5216,-2.5177,-2.5186,-2.5163,-2.5189,-2.5189,-2.518,-2.5173,-2.5184,-2.5185,-2.5186,-2.518,-2.5157,-2.5156,-2.5156,-2.5155,0,-2.5342,-2.5313,-2.5337,-2.5311,-2.5306,-2.5328,-2.5307,-2.5321,-2.5301,-2.5317,-2.5319,-2.5289,-2.5297,-2.5268,-2.5272,-2.5256,-2.5295,-2.528,-2.5299,-2.5295,-2.5333,-2.533,-2.5458,-2.5473,-2.5344,-2.5345,-2.5346,0,-2.54,-2.5419,-2.5396,-2.5401,-2.5394,-2.5403,-2.5404,-2.5369,-2.5372,-2.5361,-2.5377,-2.5382,-2.5384,-2.54,-2.5378,-2.5381,-2.5367,-2.5411,-2.5367,-2.5377,-2.5369,-2.5368,-2.5371,-2.5421,-2.5423,-2.5424,-2.5425,0,-2.5507,-2.5492,-2.5496,-2.5495,-2.5498,-2.5496,-2.5491,-2.5498,-2.546,-2.5466,-2.5474,-2.5476,-2.5479,-2.5485,-2.5484,-2.5475,-2.5444,-2.5439,-2.5448,-2.5459,-2.5469,-2.5465,-2.5325,-2.5436,-2.5435,-2.5434,-2.5434,-2.5433,-2.559,-2.5605,-2.5591,-2.5597,-2.559,-2.5586,-2.5598,-2.558,-2.5586,-2.5586,-2.5564,-2.5577,-2.5566,-2.5561,-2.5555,-2.5565,-2.5544,-2.5556,-2.556,-2.5563,-2.557,-2.5467,-2.5564,-2.5564,-2.5563,-2.5563,-2.5563,0,-2.5696,-2.5685,-2.569,-2.5685,-2.569,-2.5659,-2.5653,-2.5659,-2.5671,-2.5662,-2.5665,-2.5675,-2.5681,-2.566,-2.5663,-2.5675,-2.5661,-2.5677,-2.5677,-2.5675,-2.5588,-2.5581,-2.5688,-2.5688,-2.5688,-2.5688,-2.5688,-2.5688,-2.5751,-2.5776,-2.5759,-2.578,-2.5769,-2.5781,-2.5779,-2.5776,-2.577,-2.5782,-2.5787,-2.5773,-2.576,-2.5762,-2.5766,-2.576,-2.5764,-2.5785,-2.5774,-2.5693,-2.5681,-2.567,-2.5662,-2.5786,-2.5786,-2.586,-2.5861,-2.5862]},{"header":{"parameterUnit":"m.s-1","parameterCategory":1,"la1":30.2991,"la2":30.254,"lo1":-89.0895,"lo2":-89.0444,"dx":0.0017,"dy":0.0017,"nx":28,"ny":28,"refTime":"2022-12-13T15:00:00:Z","depth":0,"parameterNumber":3,"parameterNumberName":"V-component_of_WINDS"},"data":[0,0,0,0,0,0,0,0,0,0,0,0,0,0,0,0,0,0,0,0,0,0,0,0,0,0,0,0,0,0,0,0,0,0,0,0,0,0,0,0,0,0,0,0,0,0,0,0,0,0,0,0,0,0,0,0,0,0,-2.0047,-2.0047,0,-2.0071,-2.0072,-2.0072,-2.0065,-2.0065,-2.0064,-2.0064,-2.0086,-2.0087,-2.0088,0,0,0,0,0,0,0,0,0,0,0,0,0,-1.9993,-1.9994,-2.0047,-2.0048,-2.0048,-2.0071,-2.0072,-2.0072,-2.0065,-2.0065,-2.0064,-2.0064,-2.0086,-2.0087,-2.0088,0,0,0,0,0,0,0,0,0,0,0,0,0,-2.0016,-1.9994,-2.0047,-2.0047,-2.0048,-2.0071,-2.0072,-2.0072,-2.0065,-2.0065,-2.0064,-2.0063,-2.0085,-2.0087,-2.0088,-2.0112,0,0,-2.0093,-2.0094,0,0,0,0,0,0,0,0,-2.0015,-2.0018,-2.0047,-2.0047,-2.0048,-2.0065,-2.006,-2.0085,-2.0066,-2.0059,-2.0064,-2.0063,-2.0079,-2.0081,-2.0087,-2.0113,-2.0114,-2.0093,-2.0094,-2.0095,-2.0095,0,0,0,0,0,0,0,-2.0013,-2.0017,-2.0057,-2.0047,-2.0048,-2.0045,-2.0048,-2.0065,-2.0073,-2.0059,-2.0059,-2.0062,-2.0079,-2.0086,-2.0088,-2.0115,-2.0093,-2.0095,-2.0096,-2.0096,-2.016,-2.0161,0,0,0,0,0,0,-2.0012,-2.0016,-2.0056,-2.0057,-2.0029,-2.0047,-2.005,-2.006,-2.0072,-2.0074,-2.0062,-2.0061,-2.0084,-2.0086,-2.0089,-2.0117,-2.0095,-2.0096,-2.0097,-2.0159,-2.016,-2.0161,0,0,0,0,0,0,-2.0011,-2.0016,-2.0055,-2.0037,-2.0041,-2.0049,-2.006,-2.0061,-2.0067,-2.0075,-2.0076,-2.0068,-2.0083,-2.0086,-2.0106,-2.0117,-2.0097,-2.0098,-2.0158,-2.016,-2.0161,-2.0173,0,0,0,0,0,0,-2.0009,-2.0015,-2.0025,-2.0037,-2.0042,-2.0073,-2.0061,-2.0062,-2.007,-2.0069,-2.008,-2.0081,-2.0083,-2.0104,-2.0108,-2.0119,-2.01,-2.0157,-2.0159,-2.016,-2.0172,-2.0175,-2.0177,0,0,0,0,0,-2.0007,-2.0027,-2.0026,-2.003,-2.0055,-2.0074,-2.0077,-2.0079,-2.0071,-2.0081,-2.0085,-2.0081,-2.0116,-2.0106,-2.011,-2.0122,-2.0157,-2.0158,-2.016,-2.0171,-2.0174,-2.0177,0,0,0,0,0,0,-2.0016,-2.0029,-2.0027,-2.0052,-2.0062,-2.0073,-2.0085,-2.0082,-2.0094,-2.0093,-2.0094,-2.0096,-2.0116,-2.0121,-2.0111,-2.0145,-2.0135,-2.0138,-2.0141,-2.0145,-2.0147,-2.0145,-2.0101,0,0,0,0,0,-2.0021,-2.0036,-2.0046,-2.0067,-2.0072,-2.0078,-2.0086,-2.0086,-2.0096,-2.01,-2.0107,-2.0116,-2.0129,-2.0137,-2.0149,-2.0173,-2.0174,-2.0183,-2.0185,-2.0187,-2.0189,-2.0201,-2.0204,-2.0167,-2.0167,-2.0167,0,0,-2.0031,-2.004,-2.0049,-2.0069,-2.0077,-2.0091,-2.0081,-2.0097,-2.0107,-2.0103,-2.0122,-2.0127,-2.0137,-2.0158,-2.0168,-2.0163,-2.02,-2.019,-2.0191,-2.0192,-2.0203,-2.0207,-2.021,-2.0168,-2.0168,-2.0167,0,0,-2.0056,-2.0065,-2.0083,-2.0091,-2.0103,-2.0107,-2.0111,-2.0122,-2.0125,-2.0145,-2.0141,-2.0153,-2.0175,-2.0183,-2.0189,-2.0217,-2.0213,-2.0221,-2.0234,-2.0245,-2.0248,-2.0251,-2.0259,-2.0263,-2.0223,-2.0223,-2.0223,0,-2.0067,-2.009,-2.0092,-2.0108,-2.0117,-2.0113,-2.0131,-2.0138,-2.0153,-2.0159,-2.0153,-2.018,-2.0187,-2.021,-2.0216,-2.0222,-2.0226,-2.0219,-2.0248,-2.025,-2.0253,-2.0261,-2.0264,-2.0224,-2.0223,-2.0223,-2.0223,0,-2.0102,-2.0117,-2.013,-2.0145,-2.0155,-2.0172,-2.0176,-2.0185,-2.0184,-2.0188,-2.0207,-2.0215,-2.0229,-2.0234,-2.0234,-2.0256,-2.0253,-2.0247,-2.0237,-2.0257,-2.0265,-2.0268,-2.0225,-2.0224,-2.0224,-2.0224,0,0,-2.0133,-2.015,-2.0154,-2.0161,-2.0174,-2.0185,-2.0201,-2.0215,-2.0222,-2.0233,-2.0245,-2.0264,-2.0259,-2.0266,-2.0267,-2.0277,-2.0297,-2.027,-2.027,-2.0274,-2.0321,-2.0324,-2.0328,-2.0294,-2.0295,-2.0296,-2.0319,0,-2.0159,-2.0188,-2.0191,-2.0216,-2.023,-2.0227,-2.024,-2.0249,-2.0253,-2.0264,-2.0268,-2.0281,-2.0274,-2.0278,-2.0288,-2.0292,-2.0306,-2.0291,-2.0305,-2.0305,-2.0302,-2.0332,-2.0336,-2.0358,-2.0323,-2.0323,-2.0324,0,-2.0193,-2.0205,-2.0232,-2.0242,-2.0248,-2.0261,-2.0273,-2.0284,-2.0294,-2.0296,-2.0304,-2.0303,-2.0318,-2.0307,-2.0327,-2.0317,-2.0323,-2.0326,-2.0327,-2.0327,-2.0315,-2.0333,-2.0365,-2.0368,-2.0329,-2.0328,-2.0328,0,-2.0212,-2.0235,-2.0254,-2.026,-2.0272,-2.0281,-2.0286,-2.0295,-2.0303,-2.0314,-2.0318,-2.033,-2.0337,-2.0345,-2.0347,-2.0339,-2.0367,-2.0357,-2.0368,-2.0368,-2.0373,-2.0373,-2.0406,-2.0379,-2.0379,-2.0379,-2.0378,0,-2.024,-2.0257,-2.0263,-2.0274,-2.0292,-2.0294,-2.0311,-2.0316,-2.0324,-2.0336,-2.0334,-2.0344,-2.0346,-2.0357,-2.0358,-2.0374,-2.0377,-2.0379,-2.0379,-2.0378,-2.0378,-2.0382,-2.038,-2.0379,-2.0379,-2.0379,-2.0379,0,-2.0264,-2.0269,-2.0289,-2.03,-2.0303,-2.0315,-2.0324,-2.0334,-2.0338,-2.0352,-2.0356,-2.0361,-2.0373,-2.0376,-2.0391,-2.0392,-2.041,-2.0409,-2.0407,-2.0407,-2.0418,-2.0416,-2.0454,-2.0459,-2.0429,-2.0429,-2.0429,0,-2.0282,-2.0294,-2.0306,-2.0314,-2.032,-2.0333,-2.0341,-2.0343,-2.0351,-2.0363,-2.0372,-2.0384,-2.0394,-2.0414,-2.0419,-2.043,-2.0428,-2.0441,-2.043,-2.0429,-2.0427,-2.0426,-2.0427,-2.0443,-2.0443,-2.0443,-2.0443,0,-2.0312,-2.0313,-2.0325,-2.0338,-2.0348,-2.0357,-2.0367,-2.0373,-2.0377,-2.0386,-2.0399,-2.0407,-2.0422,-2.0434,-2.0445,-2.045,-2.0447,-2.0447,-2.045,-2.0449,-2.0447,-2.0448,-2.0412,-2.0446,-2.0446,-2.0446,-2.0445,-2.0445,-2.0332,-2.0343,-2.0352,-2.0366,-2.0373,-2.0382,-2.0392,-2.0397,-2.0408,-2.0421,-2.0421,-2.0435,-2.0444,-2.0458,-2.0463,-2.0474,-2.047,-2.0474,-2.0475,-2.0476,-2.0477,-2.0447,-2.0476,-2.0476,-2.0476,-2.0476,-2.0476,0,-2.0361,-2.0367,-2.0379,-2.0392,-2.0402,-2.04,-2.041,-2.0418,-2.0431,-2.0439,-2.0449,-2.0464,-2.0475,-2.0481,-2.0492,-2.0499,-2.0498,-2.0502,-2.0501,-2.0501,-2.048,-2.0476,-2.0502,-2.0502,-2.0502,-2.0502,-2.0502,-2.0502,-2.0377,-2.0394,-2.0397,-2.0418,-2.0424,-2.0438,-2.0444,-2.0451,-2.0458,-2.0474,-2.0484,-2.0488,-2.0495,-2.0506,-2.0516,-2.0517,-2.0521,-2.0525,-2.0526,-2.0506,-2.0503,-2.05,-2.0497,-2.0526,-2.0527,-2.0546,-2.0546,-2.0546]}]]